Погода в Безозерном

Россия / Амурская область     49°48′45″N   129°01′19″E
темп.,
°C
ветер,
м/с
пор.,
м/с
влажн.,
%
обл.,
%
осадки,
мм/ч
давл.,
гПа
погр.,
м
26 января, вт
вт2600:00−18вюв81496100 0.6 1024492
03:00−16юв81495100 2.9 1020506
06:00−15юв81395100 1.9 1018447
09:00−15юв71294100 2.6 1016393
12:00−14ююз3694100 0.5 1016494
15:00−15юз4888100 0.6 1015627
18:00−20юз238824 0.0 101622
21:00−19ю349162 0.0 101645
27 января, ср
ср2700:00−20ю349999 0.1 101657
03:00−23юз348874 0.1 101581
06:00−26юз459029 0.0 101677
09:00−28юз369158 0.0 1017124
12:00−24зюз359593 0.0 1018273
15:00−22з359597 0.1 1019336
18:00−24зюз2298100 0.1 102020
21:00−25зюз22100100 0.1 102219
28 января, чт
чт2800:00−29з339569 0.0 102220
03:00−31з339656 0.0 102222
06:00−32з239971 0.0 102219
09:00−32з229983 0.0 102319
12:00−28з2295100 0.0 1022231
15:00−26зсз2492100 0.0 1022462
18:00−30сз3397100 0.0 102319
21:00−32сз339977 0.0 102419
29 января, пт
пт2900:00−33сз239977 0.0 102519
03:00−34сз239987 0.0 102520
06:00−36сз239986 0.0 102419
09:00−36зсз229872 0.0 102519
12:00−31зсз23921 0.0 1025251
15:00−29зсз239045 0.0 1024311
18:00−35з119920 0.0 102519
21:00−36в009512 0.0 102619
30 января, сб
сб3000:00−36з11930 0.0 102719
03:00−36вюв12920 0.0 102819
06:00−37вюв119512 0.0 102819
09:00−36св00957 0.0 102919
12:00−31ссв11900 0.0 1027195
15:00−29сз128734 0.0 1026276
18:00−34сз129424 0.0 102719
21:00−35ссз129512 0.0 102819